SCP
0 0 0 0 0 0 0 0 0 0 0 0 0 0 0 0 0 0 0 0 0 0 0 1 1 1 1 1 1 1 2 4 6 6 3 1 1 0 0 0 0 0 1 1
0 0 0 0 0 0 0 0 0 0 0 0 0 0 0 0 0 0 0 0 0 0 0 1 1 1 1 1 1 1 1 3 5 5 4 2 1 0 0 0 0 0 0 1
0 0 0 0 0 0 0 0 0 0 0 0 0 0 0 0 0 0 0 0 0 0 0 0 1 1 1 1 1 1 1 2 3 4 3 2 0 0 0 0 0 0 0 0
0 0 0 0 0 0 0 0 0 0 0 0 0 0 0 0 0 0 0 0 0 0 0 0 0 1 1 1 1 1 1 1 2 3 3 1 0 0 0 0 0 0 0 0
0 0 0 0 0 0 0 0 0 0 0 0 0 0 0 0 0 0 0 0 0 0 0 0 0 0 1 1 2 2 1 1 2 2 2 1 0 0 0 0 0 0 0 0
0 0 0 0 0 0 0 0 0 0 0 0 0 0 0 0 0 0 0 0 0 0 0 0 0 0 0 1 2 2 2 2 1 1 1 1 1 0 0 0 0 0 0 0
0 0 0 0 0 0 0 0 0 0 0 0 0 0 0 0 0 0 0 0 0 0 0 0 0 0 0 1 1 2 2 2 2 1 1 1 1 0 0 0 0 0 0 0
0 0 0 0 0 0 0 0 0 0 0 0 0 0 0 0 0 0 0 0 0 0 0 0 0 0 0 0 1 1 2 2 2 1 1 1 1 0 0 0 0 0 0 0
0 0 0 0 0 0 0 0 0 0 0 0 0 0 0 0 0 0 0 0 0 0 0 0 0 0 0 0 1 1 1 2 2 2 1 1 1 0 0 0 0 0 0 0
0 0 0 0 0 0 0 0 0 0 0 0 0 0 0 0 0 0 0 0 0 0 0 0 0 0 0 0 1 1 1 2 2 2 1 1 0 0 0 0 0 0 0 0
0 0 0 0 0 0 0 0 0 0 0 0 0 0 0 0 0 0 0 0 0 0 0 0 0 0 0 0 0 1 1 2 2 2 1 1 0 0 0 0 0 0 0 0
0 0 0 0 0 0 0 0 0 0 0 0 0 0 0 0 0 0 0 0 0 0 0 0 0 0 0 0 0 0 1 2 2 2 1 1 0 0 0 0 0 0 0 0
0 0 0 0 0 0 0 0 0 0 0 0 0 0 0 0 0 0 0 0 0 0 0 0 0 0 0 0 0 0 1 1 2 2 1 1 0 0 0 0 0 0 0 0
0 0 0 0 0 0 0 0 0 0 0 0 0 0 0 0 0 0 0 0 0 0 0 0 0 0 0 0 0 0 0 1 1 2 2 1 1 0 0 0 0 0 0 0
0 0 0 0 0 0 0 0 0 0 0 0 0 0 0 0 0 0 0 0 0 0 0 0 0 0 0 0 0 0 0 0 1 1 1 1 1 1 0 0 0 0 0 0
0 0 0 0 0 0 0 0 0 0 0 0 0 0 0 0 0 0 0 0 0 0 0 0 0 0 0 0 0 0 0 0 0 1 1 1 1 1 0 0 0 0 0 0
0 0 0 0 0 0 0 0 0 0 0 0 0 0 0 0 0 0 0 0 0 0 0 0 0 0 0 0 0 0 0 0 0 1 1 2 1 1 0 0 0 0 0 0
0 0 0 0 0 0 0 0 0 0 0 0 0 0 0 0 0 0 0 0 0 0 0 0 0 0 0 0 0 0 0 0 0 1 1 1 1 1 0 0 0 0 0 0
0 0 0 0 0 0 0 0 0 0 0 0 0 0 0 0 0 0 0 0 0 0 0 0 0 0 0 0 0 0 0 0 0 0 1 1 1 1 0 0 0 0 0 0
0 0 0 0 0 0 0 0 0 0 0 0 0 0 0 0 0 0 0 0 0 0 0 0 0 0 0 0 0 0 0 0 0 0 0 0 0 0 0 0 0 0 0 0
0 0 0 0 0 0 0 0 0 0 0 0 0 0 0 0 0 0 0 0 0 0 0 0 0 0 0 0 0 0 0 0 0 0 0 0 0 0 0 0 0 0 0 0
0 0 0 0 0 0 0 0 0 0 0 0 0 0 0 0 0 0 0 0 0 0 0 0 0 0 0 0 0 0 0 0 0 0 0 0 0 0 0 0 0 0 0 0
0 0 0 0 0 0 0 0 0 0 0 0 0 0 0 0 0 0 0 0 0 0 0 0 0 0 0 0 0 0 0 0 0 0 0 0 0 0 0 0 0 0 0 0
0 0 0 0 0 0 0 0 0 0 0 0 0 0 0 0 0 0 0 0 0 0 0 0 0 0 0 0 0 0 0 0 0 0 0 0 0 0 0 0 0 0 0 0
0 0 0 0 0 0 0 0 0 0 0 0 0 0 0 0 0 0 0 0 0 0 0 0 0 0 0 0 0 0 0 0 0 0 0 0 0 0 0 0 0 0 0 0
0 0 0 0 0 0 0 0 0 0 0 0 0 0 0 0 0 0 0 0 0 0 0 0 0 0 0 0 0 0 0 0 0 0 0 0 0 0 0 0 0 0 0 0
Wind_Speed
1 2 4 7 7 5 3 4 5 5 2 2 7 9 8 5 5 6 6 7 7 7 5 5 5 5 4 3 3 3 2 2 2 2 2 2 1 1 1 1 2 2 1 2
2 4 6 3 3 4 4 6 6 5 2 3 5 10 8 6 7 7 9 8 8 6 4 5 5 4 4 5 4 4 3 3 3 2 2 2 2 1 1 1 1 1 1 1
5 4 3 3 3 4 5 6 6 5 3 2 4 8 5 4 4 4 5 6 7 8 8 7 6 5 5 5 5 4 4 4 3 2 2 2 1 1 1 1 1 1 1 1
4 4 1 2 4 4 6 4 4 3 1 4 1 6 7 3 4 5 5 5 6 6 6 6 6 5 5 4 4 4 4 4 3 3 3 4 3 2 2 1 1 1 0 0
4 2 2 4 4 4 4 2 2 3 2 3 2 4 9 2 5 6 6 6 5 6 6 6 6 5 4 4 3 3 4 3 3 3 4 4 3 2 1 1 1 1 1 1
4 2 2 3 2 2 2 2 2 2 2 5 6 6 8 5 6 5 4 4 4 4 4 4 4 3 3 3 3 2 3 3 3 3 3 4 4 3 2 2 2 1 1 1
4 3 2 0 0 1 2 3 2 3 2 7 3 5 10 6 4 5 5 4 3 3 4 4 3 3 3 3 3 3 3 3 3 3 3 4 4 4 5 4 3 2 1 1
2 5 3 2 4 3 3 5 5 5 5 5 2 7 7 3 2 1 1 1 1 1 2 4 4 4 3 3 3 3 3 3 3 3 3 3 3 3 3 4 3 3 3 2
4 5 2 1 1 4 3 4 4 3 2 4 6 6 7 2 1 1 1 0 1 2 2 3 3 3 3 3 3 3 4 3 3 3 2 3 3 3 3 3 3 3 3 2
4 4 3 2 1 1 2 4 3 3 3 6 6 6 6 4 4 3 3 3 3 1 1 1 2 2 3 3 2 2 3 3 2 2 3 2 3 3 3 3 3 3 3 2
3 3 3 1 5 6 3 3 4 3 3 4 5 8 5 6 5 5 4 4 3 2 2 2 2 2 2 1 2 2 2 1 1 2 2 2 2 2 2 3 3 3 2 2
3 3 4 6 4 2 4 6 6 5 6 5 4 10 3 3 3 3 3 2 2 2 2 2 2 1 1 1 1 2 2 2 2 2 2 2 2 2 2 2 3 3 3 3
4 3 2 4 2 1 3 4 5 3 3 5 6 10 1 0 0 2 2 2 2 2 2 1 1 2 2 2 2 2 2 2 2 1 2 2 1 2 2 2 2 3 3 3
4 4 7 9 6 4 5 5 5 6 5 7 10 11 8 5 5 4 4 3 3 3 3 3 3 3 3 3 2 2 2 2 2 1 2 2 2 3 3 2 2 2 2 3
3 5 6 8 7 5 8 9 9 11 10 10 11 11 12 8 7 6 4 4 3 3 4 4 4 4 3 3 2 2 2 2 2 2 2 3 3 2 2 2 2 2 2 3
3 4 3 7 6 6 9 11 11 12 11 12 11 14 10 6 3 3 4 4 5 5 5 5 5 4 4 4 3 3 3 2 2 2 3 2 2 2 2 2 2 2 2 2
3 4 2 6 4 4 11 12 12 9 8 9 14 14 5 4 5 6 6 6 6 6 6 5 5 5 5 5 4 4 3 2 2 2 2 2 2 2 2 2 2 2 3 2
6 5 3 3 1 10 10 3 6 9 10 9 8 6 5 7 6 5 5 6 6 6 5 5 4 4 4 3 3 2 2 2 2 2 2 2 2 2 2 2 2 3 2 3
5 6 4 3 5 11 8 3 4 6 9 7 9 9 6 4 3 4 3 4 5 5 5 5 4 3 3 2 2 2 1 1 2 2 3 3 2 2 2 2 2 2 2 3
2 4 4 4 6 10 7 2 1 2 7 4 5 6 4 1 3 5 2 2 2 3 2 2 1 1 1 2 1 2 2 2 3 3 3 2 2 2 2 3 3 2 2 3
3 4 7 8 9 11 5 1 3 4 7 2 3 4 3 4 5 3 2 2 1 2 2 1 0 1 1 1 1 1 1 2 3 2 2 2 2 2 3 2 2 2 2 2
7 6 7 6 8 11 2 3 6 6 2 2 2 3 3 3 2 2 2 2 1 2 1 1 0 1 1 0 1 1 2 3 1 1 1 2 2 2 2 2 2 2 2 2
7 7 6 8 8 2 2 4 2 1 3 3 2 2 3 3 3 2 2 2 1 1 1 1 0 0 1 1 1 2 3 2 1 1 2 2 2 2 2 2 2 2 2 2
3 2 3 5 7 4 4 3 3 2 3 3 2 2 2 2 2 2 2 2 1 1 1 1 0 0 2 2 2 1 2 1 1 1 2 1 1 1 1 2 2 2 2 2
4 4 4 6 6 4 3 4 3 2 2 2 1 1 1 2 2 2 2 2 2 1 1 1 1 1 2 2 2 2 2 1 1 1 2 2 1 1 1 2 2 3 3 4
4 5 6 7 4 4 5 3 2 2 2 2 1 2 1 1 1 1 2 2 1 1 1 1 1 2 2 2 2 2 2 1 1 2 2 1 1 1 2 2 2 4 5 7
Wind_Direction
61 96 210 218 213 221 211 222 245 252 237 224 244 260 266 251 228 224 221 214 210 211 201 176 169 163 152 150 153 156 160 159 148 153 160 163 163 137 78 56 63 70 74 90
49 246 237 227 223 234 243 255 264 278 258 236 270 274 268 250 236 225 219 217 212 204 190 183 175 168 166 171 174 171 174 176 172 174 180 183 172 166 144 80 46 53 67 88
199 242 244 212 223 229 243 237 246 261 321 302 309 295 267 263 247 237 225 218 210 199 196 193 186 181 178 182 187 186 184 183 184 171 147 125 106 97 86 53 2 354 38 70
238 258 250 217 228 210 247 232 235 243 284 278 221 285 279 256 274 256 238 221 215 204 195 191 183 181 185 194 190 186 183 183 189 175 168 167 169 177 196 201 220 277 248 167
250 250 215 228 235 201 225 228 227 232 217 275 235 238 279 293 269 259 239 226 215 201 191 188 186 185 184 181 183 185 180 185 189 191 186 186 186 186 168 161 185 212 225 210
252 270 222 225 250 205 166 52 33 53 106 258 216 199 271 239 235 250 238 224 208 195 190 188 184 166 163 165 169 174 177 191 196 198 198 191 188 177 166 178 197 217 239 229
300 283 270 158 97 22 90 92 13 335 282 251 192 203 249 253 246 233 233 233 222 198 185 176 171 168 167 172 180 179 183 201 205 203 207 203 196 191 191 195 201 206 217 243
252 277 239 204 190 197 193 159 177 219 237 277 266 231 251 265 276 271 224 232 217 190 188 181 182 179 180 187 189 186 191 202 206 209 217 218 205 197 201 202 204 210 216 224
204 256 310 264 215 167 172 204 187 167 251 267 259 272 291 279 313 312 292 13 275 220 199 199 197 189 186 192 199 198 198 199 204 210 213 218 217 210 209 207 208 213 220 220
176 250 274 301 11 256 185 161 125 159 218 255 270 253 243 244 250 253 242 248 260 257 228 224 217 208 205 204 206 199 197 201 206 207 213 214 221 219 212 201 210 216 224 220
160 205 279 302 209 210 174 179 177 179 196 206 262 263 222 211 219 228 241 241 241 233 234 240 240 226 213 209 196 196 195 191 208 215 223 224 224 222 207 207 214 215 221 223
175 158 249 247 246 230 202 200 173 192 230 209 233 264 253 221 227 213 241 258 239 229 234 236 237 250 235 229 228 218 206 208 225 228 217 219 222 219 213 217 223 216 211 216
154 149 297 318 302 290 232 218 199 184 184 207 222 259 278 20 286 240 237 259 255 242 253 259 246 233 232 238 238 235 229 229 235 226 218 221 218 224 229 231 231 229 221 217
157 184 203 225 236 203 232 231 202 183 210 230 232 251 269 266 259 257 252 253 249 243 242 245 248 246 241 240 241 240 244 241 237 226 224 232 234 225 233 237 229 231 230 223
149 221 238 256 264 245 240 238 213 211 216 224 243 242 256 251 244 243 239 251 257 255 246 244 247 248 245 242 242 243 250 244 232 223 232 241 246 238 233 236 236 231 233 239
168 214 244 268 260 255 259 254 233 230 232 238 254 262 260 264 260 251 242 237 247 256 251 248 247 247 244 242 241 241 249 249 229 228 241 251 249 247 242 240 239 242 242 245
185 179 214 265 284 299 262 240 223 220 218 212 233 248 267 266 256 244 241 233 239 249 255 253 245 240 241 238 232 228 233 239 229 234 248 250 245 249 249 244 238 241 243 242
178 178 204 259 308 247 247 227 207 219 238 225 236 258 257 253 258 258 244 232 245 249 253 260 256 250 248 244 236 229 219 220 232 239 247 252 246 249 249 237 238 242 244 243
190 185 206 217 246 268 279 251 186 204 256 230 234 255 266 278 306 281 259 234 235 244 249 254 251 251 247 235 227 211 224 225 237 244 248 251 250 252 249 246 247 246 240 248
174 183 203 213 235 253 257 242 187 138 268 240 219 244 255 237 261 265 270 292 286 277 263 261 267 255 237 243 198 189 224 227 243 248 252 255 248 245 247 248 255 260 250 252
178 205 216 225 240 259 259 234 130 188 254 287 238 238 217 219 235 267 304 302 281 292 292 281 243 247 249 227 168 196 224 247 256 262 264 266 255 246 243 241 251 254 260 261
190 193 209 205 228 251 209 150 193 230 295 279 262 244 224 240 255 275 283 288 304 322 331 340 200 290 302 196 162 218 256 268 275 271 268 262 258 255 260 237 249 250 249 250
204 199 198 203 223 263 179 207 256 313 281 275 263 261 229 235 253 278 293 293 293 297 304 323 159 350 344 324 183 231 278 286 283 283 274 271 272 266 264 242 246 246 237 239
243 214 207 247 256 260 263 276 294 291 276 283 269 257 215 224 247 280 288 296 300 304 299 313 67 349 318 325 322 274 296 315 289 281 284 280 271 274 271 268 249 245 242 237
223 189 215 246 268 302 284 264 270 289 309 308 313 293 230 212 251 261 276 285 286 295 308 301 252 270 298 326 324 322 325 337 308 290 287 293 292 284 278 280 266 262 245 240
197 193 203 237 235 231 262 273 272 266 278 278 300 331 334 237 244 271 283 287 286 291 306 315 304 300 309 323 318 323 323 313 291 295 300 294 292 290 286 289 306 303 296 289